Weather reports worldwide

Advertisment
Rygge, Norway (1494): temperature & dewpoint: 25.09.2020 13:00:00 - 01.10.2020 13:00:00 (CEST)Rygge, Norway (1494): wind speed & gusts: 25.09.2020 13:00:00 - 01.10.2020 13:00:00 (CEST)Rygge, Norway (1494): wind direction: 25.09.2020 13:00:00 - 01.10.2020 13:00:00 (CEST)Rygge, Norway (1494): reduced air pressure: 25.09.2020 13:00:00 - 01.10.2020 13:00:00 (CEST)Rygge, Norway (1494): visibility: 25.09.2020 13:00:00 - 01.10.2020 13:00:00 (CEST)
Date & Time tt [°C] td [°C] ff [km/h] ff [kn] fx [km/h] fx [kn] dd ppp [hPa] vv [km]
01.10.2020 13:00:00 13,0 8,0 15 8 - - E - 10
01.10.2020 12:00:00 12,8 8,1 15 8 32 17 E 1015,3 10
01.10.2020 11:00:00 12,3 9,3 15 8 26 14 E 1015,6 10
01.10.2020 10:00:00 11,9 9,8 22 12 - - E 1015,6 10
01.10.2020 09:00:00 11,8 9,5 21 11 32 17 E 1015,5 10
01.10.2020 08:00:00 11,5 9,4 15 8 25 14 E 1015,3 10
01.10.2020 07:00:00 11,5 9,7 15 8 24 13 E 1015,0 10
01.10.2020 06:00:00 12,7 9,9 16 9 22 12 E 1014,9 10
01.10.2020 05:00:00 12,6 9,8 13 7 18 10 E 1015,0 10
01.10.2020 04:00:00 12,7 9,7 11 6 16 9 E 1015,1 10
01.10.2020 03:00:00 12,9 9,7 15 8 20 11 E 1015,4 10
01.10.2020 02:00:00 12,9 10,1 13 7 21 11 E 1015,6 10
01.10.2020 01:00:00 12,8 10,0 13 7 21 12 E 1015,9 10
01.10.2020 00:00:00 12,9 10,1 15 8 20 11 E 1016,1 10
30.09.2020 23:00:00 12,7 10,2 15 8 18 10 ESE 1016,3 10
30.09.2020 22:00:00 12,9 10,6 15 8 23 12 E 1016,5 10
30.09.2020 21:00:00 12,9 11,0 9 5 17 9 E 1016,4 10
30.09.2020 20:00:00 12,7 11,3 9 5 11 6 SE 1016,3 10
30.09.2020 19:00:00 13,0 11,1 8 5 13 7 ESE 1016,3 29
30.09.2020 18:00:00 14,4 11,5 8 4 18 10 SSE 1016,1 10
30.09.2020 17:00:00 14,8 11,6 13 7 20 11 SSE 1016,0 10
30.09.2020 16:00:00 14,3 11,8 9 5 18 10 SSE 1016,4 10
30.09.2020 15:00:00 13,8 11,7 9 5 21 11 S 1016,4 10
30.09.2020 14:00:00 14,6 11,0 13 7 26 14 SE 1016,4 10
30.09.2020 13:00:00 14,9 11,5 13 7 20 11 SE 1016,5 10
30.09.2020 12:00:00 14,0 11,0 15 8 - - SE - 10
30.09.2020 11:00:00 13,0 11,0 15 8 - - SE - 10
30.09.2020 10:00:00 12,5 10,6 11 6 21 11 ESE 1016,6 10
30.09.2020 09:00:00 11,2 9,6 8 4 16 9 ESE 1016,4 10
30.09.2020 08:00:00 10,7 9,3 13 7 16 9 SE 1016,3 10
30.09.2020 07:00:00 10,3 8,6 5 3 13 7 SE 1016,3 10
30.09.2020 06:00:00 10,4 8,8 13 7 17 9 ESE 1016,1 10
30.09.2020 05:00:00 10,8 8,9 9 5 14 7 E 1016,3 10
30.09.2020 04:00:00 10,7 9,0 11 6 17 9 ESE 1016,4 10
30.09.2020 03:00:00 10,9 9,2 13 7 19 10 ESE 1016,7 10
30.09.2020 02:00:00 10,8 9,6 15 8 16 8 E 1016,9 10
30.09.2020 01:00:00 10,9 10,0 11 6 16 8 E 1017,0 10
30.09.2020 00:00:00 10,2 9,6 9 5 10 6 ESE 1017,2 9
29.09.2020 23:00:00 9,0 8,4 5 3 8 4 ENE 1017,2 0,1
29.09.2020 22:00:00 9,3 8,7 8 4 10 5 E 1017,3 8
29.09.2020 21:00:00 11,3 10,7 5 3 9 5 E 1017,3 5
29.09.2020 20:00:00 12,2 11,3 7 4 11 6 SE 1017,0 9
29.09.2020 19:00:00 12,7 11,3 5 3 15 8 SSE 1016,9 10
29.09.2020 18:00:00 13,8 11,0 13 7 19 10 SSW 1016,6 10
29.09.2020 17:00:00 14,4 11,4 16 9 24 13 S 1016,4 10
29.09.2020 16:00:00 16,0 11,0 16 9 - - SSW - 10
29.09.2020 15:00:00 14,8 11,2 13 7 23 12 S 1016,4 10
29.09.2020 14:00:00 14,5 11,8 11 6 21 12 S 1016,5 10
29.09.2020 13:00:00 13,4 12,5 8 4 10 5 E 1016,6 10
29.09.2020 12:00:00 13,0 12,1 4 2 17 9 - 1016,5 9
29.09.2020 11:00:00 12,8 12,0 13 7 21 11 S 1016,2 5
29.09.2020 10:00:00 12,9 12,3 11 6 19 10 SE 1015,7 3,8
29.09.2020 09:00:00 12,7 12,1 11 6 19 10 ESE 1015,3 2,0
29.09.2020 08:00:00 12,4 11,8 9 5 13 7 E 1015,0 2,2
29.09.2020 07:00:00 12,3 11,7 9 5 14 8 E 1014,7 2,4
29.09.2020 06:00:00 12,2 11,6 5 3 9 5 NE 1014,6 1,2
29.09.2020 05:00:00 12,2 11,6 8 4 9 5 NNE 1014,7 1,2
29.09.2020 04:00:00 12,2 11,6 8 4 10 5 NNE 1014,7 1,4
29.09.2020 03:00:00 12,2 11,4 5 3 11 6 NE 1014,7 1,5
29.09.2020 02:00:00 12,4 11,0 13 7 13 7 ENE 1014,8 10
29.09.2020 01:00:00 12,4 10,8 5 3 9 5 NE 1015,1 10
29.09.2020 00:00:00 12,3 10,5 5 3 10 6 NE 1015,5 10
28.09.2020 23:00:00 12,3 10,5 9 5 14 8 ENE 1015,6 10
28.09.2020 22:00:00 12,6 10,5 9 5 19 10 E 1015,7 10
28.09.2020 21:00:00 12,9 10,6 9 5 15 8 E 1015,5 10
28.09.2020 20:00:00 13,0 10,5 13 7 13 7 NE 1015,3 10
28.09.2020 19:00:00 13,2 10,2 11 6 19 10 E 1014,9 10
28.09.2020 18:00:00 14,0 10,0 8 4 - - NNE - 10
28.09.2020 17:00:00 13,8 10,4 8 4 11 6 NE 1014,4 10
28.09.2020 16:00:00 13,8 10,0 11 6 18 10 NE 1014,5 10
28.09.2020 15:00:00 13,8 10,0 11 6 21 12 NE 1014,9 10
28.09.2020 14:00:00 13,6 10,0 10 5 23 12 NE 1015,5 33
28.09.2020 13:00:00 13,0 9,5 13 7 23 13 NNE 1015,6 10
28.09.2020 12:00:00 12,2 9,2 15 8 27 15 NNE 1015,8 10
28.09.2020 11:00:00 11,9 9,1 15 8 25 14 NNE 1015,8 10
28.09.2020 10:00:00 11,3 8,9 15 8 27 15 NNE 1015,7 10
28.09.2020 09:00:00 11,3 8,9 15 8 26 14 NNE 1015,9 10
28.09.2020 08:00:00 11,3 9,0 15 8 29 15 NNE 1015,6 39
28.09.2020 07:00:00 11,0 9,0 15 8 - - NNE - 10
28.09.2020 06:00:00 11,3 9,0 15 8 26 14 N 1015,6 10
28.09.2020 05:00:00 12,0 9,0 15 8 - - N - 10
28.09.2020 04:00:00 11,6 9,2 16 9 28 15 N 1015,9 10
28.09.2020 03:00:00 11,8 9,4 11 6 27 14 N 1016,6 10
28.09.2020 02:00:00 11,8 9,4 15 8 27 15 N 1016,5 32
28.09.2020 01:00:00 12,1 9,5 15 8 22 12 NNE 1016,8 10
28.09.2020 00:00:00 12,3 9,9 16 9 27 14 NNE 1016,7 10
27.09.2020 23:00:00 12,4 10,1 16 9 26 14 N 1016,6 10
27.09.2020 22:00:00 12,3 10,2 16 9 23 12 N 1016,5 10
27.09.2020 21:00:00 12,3 10,2 15 8 23 13 N 1016,4 10
27.09.2020 20:00:00 12,4 10,1 22 12 26 14 NNE 1016,0 10
27.09.2020 19:00:00 12,0 10,0 16 9 - - N - 10
27.09.2020 18:00:00 12,7 9,9 21 11 34 18 N 1015,5 10
27.09.2020 17:00:00 12,8 9,6 19 10 32 18 N 1015,2 -
27.09.2020 16:00:00 13,0 9,8 18 10 27 14 N 1015,2 10
27.09.2020 15:00:00 12,9 9,7 15 8 30 16 N 1015,2 10
27.09.2020 14:00:00 12,1 9,1 16 9 31 17 N 1015,5 10
27.09.2020 13:00:00 11,8 8,8 21 11 33 18 N 1015,3 10
27.09.2020 12:00:00 10,8 8,4 16 9 32 18 N 1015,5 10
27.09.2020 11:00:00 10,3 8,2 16 9 29 16 N 1015,4 10
27.09.2020 10:00:00 10,0 7,8 18 10 29 15 N 1015,0 10
27.09.2020 09:00:00 9,8 7,6 18 10 29 16 N 1014,7 10
27.09.2020 08:00:00 9,5 7,3 19 10 30 16 N 1014,3 50
27.09.2020 07:00:00 9,4 7,2 16 9 34 18 N 1014,1 10
27.09.2020 06:00:00 9,4 7,0 18 10 29 16 N 1013,8 10
27.09.2020 05:00:00 9,2 7,0 18 10 35 19 N 1013,5 10
27.09.2020 04:00:00 9,1 7,1 21 11 38 20 N 1013,4 10
27.09.2020 03:00:00 9,0 7,1 21 11 34 18 N 1013,1 10
27.09.2020 02:00:00 8,9 7,2 22 12 32 17 N 1012,8 10
27.09.2020 01:00:00 9,0 7,1 21 11 34 19 N 1012,8 10
27.09.2020 00:00:00 9,6 6,7 22 12 40 21 NNE 1012,4 10
26.09.2020 23:00:00 9,5 6,6 26 14 42 23 NNE 1011,9 10
26.09.2020 22:00:00 9,5 6,6 24 13 47 25 N 1011,2 10
26.09.2020 21:00:00 9,4 6,5 24 13 42 23 N 1010,7 10
26.09.2020 20:00:00 9,1 6,5 24 13 - - N 1010,2 10
26.09.2020 19:00:00 9,0 6,6 24 13 39 21 N 1009,3 10
26.09.2020 18:00:00 9,0 6,6 21 11 35 19 N 1008,5 10
26.09.2020 17:00:00 8,8 6,6 21 11 39 21 N 1007,9 10
26.09.2020 16:00:00 8,7 6,5 26 14 39 21 N 1007,0 10
26.09.2020 15:00:00 8,7 6,5 18 10 44 24 N 1006,3 10
26.09.2020 14:00:00 8,5 6,5 28 15 46 25 N 1005,7 10
26.09.2020 13:00:00 8,2 6,3 22 12 40 22 N 1005,3 10
26.09.2020 12:00:00 7,7 5,8 24 13 40 21 N 1004,6 10
26.09.2020 11:00:00 7,0 6,0 22 12 - - N - 10
26.09.2020 10:00:00 6,8 5,7 24 13 41 22 N 1002,9 10
26.09.2020 09:00:00 6,5 5,6 23 12 41 22 N 1002,1 6
26.09.2020 08:00:00 6,4 5,4 24 13 44 24 N 1001,5 8
26.09.2020 07:00:00 6,4 5,4 28 15 43 23 N 1001,1 4,8
26.09.2020 06:00:00 6,7 5,5 29 16 44 24 N 1000,2 9
26.09.2020 05:00:00 6,8 5,6 22 12 43 23 N 1000,2 10
26.09.2020 04:00:00 7,0 5,6 34 18 57 31 N 999,6 5
26.09.2020 03:00:00 7,3 5,9 31 17 57 31 N 999,8 4,2
26.09.2020 02:00:00 7,6 6,4 34 18 52 28 N 1000,0 7
26.09.2020 01:00:00 8,1 6,7 29 16 46 25 N 1001,0 8
26.09.2020 00:00:00 8,8 6,9 24 13 38 20 N 1001,7 10
25.09.2020 23:00:00 9,7 7,3 18 10 28 15 N 1002,5 9
25.09.2020 22:00:00 10,9 7,6 18 10 28 15 N 1003,3 10
25.09.2020 21:00:00 11,6 7,7 21 11 30 16 N 1003,6 10
25.09.2020 20:00:00 11,3 8,0 22 12 28 15 N 1003,6 10
25.09.2020 19:00:00 11,4 9,2 16 9 23 12 N 1003,8 10
25.09.2020 18:00:00 11,8 9,7 22 12 32 17 N 1004,0 10
25.09.2020 17:00:00 13,0 9,0 16 9 - - NNE - 10
25.09.2020 16:00:00 12,7 8,2 18 10 29 16 NNE 1004,3 10
25.09.2020 15:00:00 12,7 8,6 13 7 23 12 N 1004,4 10
25.09.2020 14:00:00 12,7 8,4 13 7 22 12 N 1004,6 10
25.09.2020 13:00:00 12,1 8,6 11 6 18 10 N 1004,7 10

tt = temperature
td = dewpoint
ff = wind speed
fx = gusts
dd = wind direction
ppp = reduced air pressure
vv = visibility

Next stations